Location: Oberkirch
(48.5323°N, 8.0787°E)
Time: 15:59:05
(UTC+00:00)

Tiros 1 despin weight - Pass Details

Date: 07 February 2026
Orbit: 556 x 593 km, 48.2° (Epoch: 5 March)

Event Time Altitude Azimuth Distance (km) Brightness Sun altitude
Rises 18:20:24 0° 215° (SW) 2,722 ? -17.6°
Reaches altitude 10° 18:22:54 10° 203° (SSW) 1,831 ? -18.0°
Maximum altitude 18:26:22 26° 146° (SSE) 1,128 ? -18.6°
Enters shadow 18:26:25 26° 145° (SE) 1,128 ? -18.6°
